Location: Boiro
(42.6475°N, 8.8834°W)
Time: 02:14:57
(UTC+01:00)

Explorer 7 - Pass Details

Date: 02 December 2021
Orbit: 483 x 674 km, 50.3° (Epoch: 23 January)

Event Time Altitude Azimuth Distance (km) Brightness Sun altitude
Rises 11:05:04 0° 292° (WNW) 2,688 9.9 17.7°
Reaches altitude 10° 11:07:36 10° 305° (NW) 1,764 8.9 18.0°
Maximum altitude 11:11:00 26° 3° (N) 1,023 7.9 18.3°
Drops below altitude 10° 11:14:17 10° 62° (ENE) 1,695 9.4 18.7°
Sets 11:16:41 0° 76° (ENE) 2,560 10.5 18.9°
